Погода в Гороховке

Россия / Воронежская область     50°06′17″N   40°10′45″E
темп.,
°C
ветер,
м/с
пор.,
м/с
влажн.,
%
обл.,
%
осадки,
мм/ч
давл.,
гПа
погр.,
м
20 июня, вс
вс2000:00+16всв38765 0.0 1022143
03:00+15всв48733 0.0 1022151
06:00+16всв411770 0.0 1021258
09:00+22в6105818 0.0 1021557
12:00+25в7849100 0.0 10201005
15:00+27в6952100 0.0 10191207
18:00+25всв5106391 0.0 1018345
21:00+20всв51474100 0.0 1018273
21 июня, пн
пн2100:00+20в5156664 0.0 1018299
03:00+18в3866100 0.0 1017146
06:00+19в3871100 0.0 1018172
09:00+25вюв51053100 0.0 1019483
12:00+28вюв684111 0.0 1018931
15:00+30вюв694594 0.0 10171392
18:00+28в495788 0.0 1016290
21:00+23всв4116781 0.0 1017180
22 июня, вт
вт2200:00+20всв414695 0.0 1017278
03:00+19в41070100 0.0 1018185
06:00+20всв41176100 0.0 1018242
09:00+26в6106174 0.0 1018470
12:00+30вюв794785 0.0 10181078
15:00+32в610455 0.0 10172404
18:00+29всв6115629 0.0 1016373
21:00+26всв61564100 0.0 1017381
23 июня, ср
ср2300:00+24всв6166196 0.0 1017357
03:00+21в376998 0.0 1017112
06:00+22в3473100 0.0 101778
09:00+27вюв365292 0.0 1018318
12:00+32вюв564198 0.0 10181119
15:00+30в3755100 0.0 1018267
18:00+29в375960 0.0 1018227
21:00+24всв336449 0.0 101825
24 июня, чт
чт2400:00+22в345557 0.0 101845
03:00+21всв335699 0.0 101828
06:00+22в226494 0.0 101937
09:00+27в465357 0.0 1018334
12:00+31вюв6842100 0.0 10181103
15:00+32вюв4743100 0.0 10171970
18:00+31всв345697 0.0 101787
21:00+25всв346764 0.0 101759